Paynesville, MN

3:17 PM CDT on April 22, 2018 (GMT -0500)
Paynesville

Weather History for KPEX - September, 2012

Change the Weather History Date:

Tuesday, September 18, 2012

  Actual Average (KLJF) Record (KLJF)
Temperature  
Mean Temperature 44 °F -  
Max Temperature 58 °F 73 °F 90 °F (1955)
Min Temperature 31 °F 49 °F 34 °F (1971)
Degree Days  
Heating Degree Days 20    
Moisture  
Dew Point 31 °F    
Average Humidity 60    
Maximum Humidity 95    
Minimum Humidity 29    
Precipitation  
Precipitation 0.00 in - - ()
Sea Level Pressure  
Sea Level Pressure 29.99 in    
Wind  
Wind Speed 4 mph (SW)    
Max Wind Speed 13 mph    
Max Gust Speed 17 mph    
Visibility 10 miles    
Events      
Averages and records for this station are not official NWS values.
T = Trace of Precipitation, MM = Missing Value Source: NWS Daily Summary

Daily Weather History Graph

Daily Weather History Graph

Search for Another Location

Airport or City:

Astronomy

Sep. 18, 2012 Rise Set
Actual Time 7:01 AM CDT 7:23 PM CDT
Civil Twilight 6:32 AM CDT 7:52 PM CDT
Nautical Twilight 5:57 AM CDT 8:27 PM CDT
Astronomical Twilight 5:21 AM CDT 9:03 PM CDT
Moon 10:14 AM CDT (9/18) 8:33 PM CDT (9/18)
Length of Visible Light 13h 20m
Length of Day
12h 21m
Waxing Crescent, 9% of the Moon is Illuminated
Sep 18
Waxing Crescent
Sep 22
First Quarter
Sep 29
Full
Oct 8
Last Quarter
Oct 15
New

Hourly Weather History & Observations

Time (CDT) Temp. Windchill Dew Point Humidity Pressure Visibility Wind Dir Wind Speed Gust Speed Precip Events Conditions
12:14 AM 36.5 °F 32.7 °F 32.0 °F 84% 30.04 in 10.0 mi WSW 4.6 mph - N/A   Scattered Clouds
12:34 AM 36.3 °F 33.7 °F 32.0 °F 84% 30.04 in 10.0 mi West 3.5 mph - N/A   Scattered Clouds
12:53 AM 35.8 °F 33.0 °F 31.5 °F 84% 30.04 in 10.0 mi WSW 3.5 mph - N/A   Mostly Cloudy
1:13 AM 36.7 °F 34.1 °F 32.0 °F 83% 30.04 in 10.0 mi WSW 3.5 mph - N/A   Mostly Cloudy
1:34 AM 36.5 °F - 32.2 °F 84% 30.04 in 10.0 mi Calm Calm - N/A   Mostly Cloudy
1:53 AM 35.8 °F 33.0 °F 32.0 °F 86% 30.04 in 10.0 mi WSW 3.5 mph - N/A   Scattered Clouds
2:34 AM 33.8 °F 29.6 °F 31.1 °F 90% 30.04 in 10.0 mi WSW 4.6 mph - N/A   Clear
2:53 AM 34.2 °F 29.0 °F 32.0 °F 92% 30.03 in 10.0 mi WSW 5.8 mph - N/A   Clear
3:14 AM 34.0 °F - 32.0 °F 92% 30.03 in 10.0 mi Calm Calm - N/A   Clear
3:33 AM 34.0 °F - 32.0 °F 92% 30.03 in 10.0 mi Calm Calm - N/A   Clear
3:53 AM 34.0 °F 31.0 °F 32.0 °F 92% 30.03 in 10.0 mi WSW 3.5 mph - N/A   Clear
4:14 AM 32.9 °F 29.8 °F 31.3 °F 94% 30.03 in 10.0 mi West 3.5 mph - N/A   Clear
4:33 AM 32.9 °F - 31.6 °F 95% 30.03 in 10.0 mi Calm Calm - N/A   Clear
4:54 AM 33.3 °F - 31.8 °F 94% 30.03 in 10.0 mi Calm Calm - N/A   Clear
5:13 AM 32.4 °F - 31.1 °F 95% 30.04 in 10.0 mi Calm Calm - N/A   Clear
5:34 AM 33.1 °F - 31.8 °F 95% 30.04 in 10.0 mi Calm Calm - N/A   Clear
5:53 AM 32.4 °F - 30.7 °F 94% 30.04 in 10.0 mi Calm Calm - N/A   Clear
6:14 AM 31.6 °F - 29.7 °F 92% 30.04 in 10.0 mi Calm Calm - N/A   Clear
6:34 AM 32.2 °F - 30.9 °F 95% 30.05 in 10.0 mi Calm Calm - N/A   Clear
6:54 AM 33.8 °F 30.8 °F 32.0 °F 93% 30.05 in 10.0 mi WSW 3.5 mph - N/A   Clear
7:14 AM 34.3 °F - 32.5 °F 93% 30.05 in 10.0 mi Calm Calm - N/A   Clear
7:33 AM 34.7 °F 31.8 °F 32.9 °F 93% 30.05 in 10.0 mi WSW 3.5 mph - N/A   Scattered Clouds
7:53 AM 35.2 °F 32.4 °F 33.4 °F 93% 30.06 in 10.0 mi WSW 3.5 mph - N/A   Scattered Clouds
8:14 AM 36.5 °F 33.9 °F 34.5 °F 93% 30.06 in 10.0 mi WSW 3.5 mph - N/A   Mostly Cloudy
8:34 AM 37.4 °F 33.8 °F 35.2 °F 92% 30.06 in 10.0 mi WSW 4.6 mph - N/A   Overcast
8:53 AM 39.4 °F 36.1 °F 36.5 °F 89% 30.06 in 10.0 mi West 4.6 mph - N/A   Mostly Cloudy
9:14 AM 41.9 °F 39.0 °F 37.2 °F 83% 30.06 in 10.0 mi West 4.6 mph - N/A   Scattered Clouds
9:34 AM 44.4 °F 42.9 °F 37.6 °F 77% 30.06 in 10.0 mi WSW 3.5 mph - N/A   Clear
9:54 AM 46.4 °F - 37.0 °F 70% 30.06 in 10.0 mi Calm Calm - N/A   Clear
10:13 AM 48.2 °F - 35.8 °F 62% 30.06 in 10.0 mi Calm Calm - N/A   Clear
10:34 AM 49.8 °F - 34.7 °F 56% 30.06 in 10.0 mi West 4.6 mph - N/A   Clear
10:53 AM 51.6 °F - 32.5 °F 48% 30.06 in 10.0 mi WNW 8.1 mph - N/A   Clear
11:14 AM 51.8 °F - 32.2 °F 47% 30.06 in 10.0 mi West 8.1 mph - N/A   Clear
11:33 AM 52.9 °F - 31.5 °F 44% 30.05 in 10.0 mi NNW 6.9 mph - N/A   Clear
11:54 AM 53.2 °F - 31.1 °F 43% 30.05 in 10.0 mi NW 4.6 mph - N/A   Clear
12:13 PM 53.6 °F - 30.0 °F 41% 30.04 in 10.0 mi Calm Calm - N/A   Scattered Clouds
12:34 PM 55.0 °F - 28.2 °F 36% 30.04 in 10.0 mi West 3.5 mph - N/A   Clear
12:53 PM 55.4 °F - 28.2 °F 35% 30.03 in 10.0 mi West 9.2 mph - N/A   Scattered Clouds
1:14 PM 55.8 °F - 28.2 °F 35% 30.02 in 10.0 mi NNW 6.9 mph - N/A   Clear
1:33 PM 56.3 °F - 27.0 °F 32% 30.01 in 10.0 mi North 3.5 mph - N/A   Clear
1:54 PM 57.0 °F - 27.3 °F 32% 30.00 in 10.0 mi NNW 3.5 mph - N/A   Clear
2:14 PM 57.7 °F - 27.0 °F 31% 29.99 in 10.0 mi West 8.1 mph - N/A   Scattered Clouds
2:33 PM 57.6 °F - 26.1 °F 30% 29.99 in 10.0 mi NW 6.9 mph - N/A   Scattered Clouds
2:53 PM 57.6 °F - 28.4 °F 33% 29.99 in 10.0 mi SSW 6.9 mph - N/A   Scattered Clouds
3:14 PM 57.6 °F - 28.4 °F 33% 29.98 in 10.0 mi SSW 8.1 mph - N/A   Clear
3:33 PM 57.7 °F - 27.0 °F 31% 29.98 in 10.0 mi SSW 10.4 mph 16.1 mph N/A   Clear
3:53 PM 58.1 °F - 25.5 °F 29% 29.97 in 10.0 mi SW 8.1 mph - N/A   Clear
4:14 PM 57.9 °F - 25.5 °F 29% 29.97 in 10.0 mi WSW 5.8 mph - N/A   Mostly Cloudy
4:33 PM 56.7 °F - 26.6 °F 32% 29.96 in 10.0 mi South 5.8 mph - N/A   Overcast
4:54 PM 56.5 °F - 27.5 °F 33% 29.95 in 10.0 mi South 6.9 mph - N/A   Overcast
5:13 PM 56.3 °F - 28.4 °F 34% 29.95 in 10.0 mi SSW 5.8 mph - N/A   Overcast
5:34 PM 56.3 °F - 28.2 °F 34% 29.94 in 10.0 mi SSW 4.6 mph - N/A   Overcast
5:54 PM 55.9 °F - 29.1 °F 36% 29.94 in 10.0 mi South 3.5 mph - N/A   Overcast
6:14 PM 55.6 °F - 29.1 °F 36% 29.94 in 10.0 mi South 3.5 mph - N/A   Overcast
6:33 PM 55.4 °F - 29.3 °F 37% 29.94 in 10.0 mi South 3.5 mph - N/A   Overcast
6:53 PM 55.0 °F - 30.2 °F 39% 29.94 in 10.0 mi SSE 4.6 mph - N/A   Overcast
7:14 PM 55.0 °F - 30.4 °F 39% 29.93 in 10.0 mi SSE 4.6 mph - N/A   Overcast
7:34 PM 54.9 °F - 30.9 °F 40% 29.92 in 10.0 mi South 8.1 mph - N/A   Overcast
7:53 PM 54.5 °F - 31.1 °F 41% 29.92 in 10.0 mi SSE 6.9 mph - N/A   Overcast
8:13 PM 54.5 °F - 31.5 °F 42% 29.91 in 10.0 mi SSE 8.1 mph - N/A   Overcast
8:34 PM 54.0 °F - 31.6 °F 43% 29.90 in 10.0 mi SSE 9.2 mph - N/A   Overcast
8:53 PM 54.0 °F - 31.6 °F 43% 29.90 in 10.0 mi SSE 8.1 mph - N/A   Overcast
9:14 PM 53.6 °F - 31.8 °F 44% 29.89 in 10.0 mi SSE 6.9 mph - N/A   Overcast
9:33 PM 53.8 °F - 32.0 °F 44% 29.88 in 10.0 mi SE 9.2 mph - N/A   Overcast
9:53 PM 53.6 °F - 31.5 °F 43% 29.87 in 10.0 mi SSE 12.7 mph 16.1 mph N/A   Overcast
10:13 PM 53.4 °F - 31.6 °F 44% 29.86 in 10.0 mi SE 10.4 mph - N/A   Overcast
10:54 PM 52.0 °F - 32.0 °F 47% 29.85 in 10.0 mi SSE 8.1 mph 16.1 mph N/A   Clear
11:13 PM 52.2 °F - 32.0 °F 46% 29.85 in 10.0 mi SSE 6.9 mph - N/A   Mostly Cloudy
11:34 PM 52.2 °F - 32.0 °F 46% 29.84 in 10.0 mi SSE 9.2 mph - N/A   Overcast
11:53 PM 52.0 °F - 32.0 °F 47% 29.83 in 10.0 mi SSE 9.2 mph 17.3 mph N/A   Overcast